TimeEST,TemperatureF,Dew PointF,Humidity,Sea Level PressureIn,VisibilityMPH,Wind Direction,Wind SpeedMPH,Gust SpeedMPH,PrecipitationIn,Events,Conditions,WindDirDegrees,DateUTC
12:17 AM,13.8,12.0,93,29.77,1.0,East,10.4,16.1,N/A,Snow,Light Snow,80,2014-02-18 05:17:00
12:36 AM,14.0,12.2,93,29.76,1.5,East,8.1,17.3,N/A,Snow,Light Snow,80,2014-02-18 05:36:00
12:56 AM,14.5,12.9,93,29.75,1.8,East,10.4,17.3,N/A,Snow,Light Snow,80,2014-02-18 05:56:00
1:17 AM,14.9,13.5,94,29.74,2.5,East,9.2,17.3,N/A,Snow,Light Snow,80,2014-02-18 06:17:00
1:36 AM,14.9,13.5,94,29.74,4.0,East,10.4,18.4,N/A,Snow,Light Snow,80,2014-02-18 06:36:00
1:56 AM,15.4,13.8,93,29.74,7.0,ENE,11.5,18.4,N/A,Snow,Light Snow,70,2014-02-18 06:56:00
2:17 AM,15.8,14.0,93,29.74,10.0,East,10.4,16.1,N/A,,Overcast,80,2014-02-18 07:17:00
2:36 AM,15.8,14.0,93,29.74,5.0,East,9.2,-,N/A,Snow,Light Snow,80,2014-02-18 07:36:00
2:56 AM,16.2,14.4,93,29.75,2.0,East,10.4,-,N/A,Snow,Light Snow,80,2014-02-18 07:56:00
3:17 AM,16.2,14.5,93,29.74,2.5,ENE,8.1,-,N/A,Snow,Light Snow,70,2014-02-18 08:17:00
3:36 AM,15.8,14.4,94,29.74,2.5,ENE,9.2,-,N/A,Snow,Light Snow,60,2014-02-18 08:36:00
3:57 AM,15.8,14.2,93,29.75,3.0,NE,5.8,-,N/A,Snow,Light Snow,50,2014-02-18 08:57:00
4:17 AM,15.8,14.0,93,29.75,4.0,NE,3.5,-,N/A,Snow,Light Snow,40,2014-02-18 09:17:00
4:36 AM,15.3,13.8,94,29.75,5.0,NE,4.6,-,N/A,Snow,Light Snow,40,2014-02-18 09:36:00
4:57 AM,14.5,13.1,94,29.76,3.0,Calm,Calm,-,N/A,Snow,Light Snow,0,2014-02-18 09:57:00
5:17 AM,14.5,13.1,94,29.77,2.5,Calm,Calm,-,N/A,Snow,Light Snow,0,2014-02-18 10:17:00
5:36 AM,13.8,12.2,93,29.77,2.5,NW,3.5,-,N/A,Snow,Light Snow,310,2014-02-18 10:36:00
5:57 AM,13.1,11.8,95,29.77,4.0,WNW,3.5,-,N/A,Snow,Light Snow,290,2014-02-18 10:57:00
6:16 AM,12.9,11.3,93,29.78,7.0,West,4.6,-,N/A,Snow,Light Snow,280,2014-02-18 11:16:00
6:36 AM,12.2,10.8,94,29.78,10.0,WNW,4.6,-,N/A,Snow,Light Snow,290,2014-02-18 11:36:00
6:57 AM,12.2,10.6,93,29.77,10.0,Calm,Calm,-,N/A,,Scattered Clouds,0,2014-02-18 11:57:00
7:16 AM,10.2,8.6,93,29.78,10.0,WNW,4.6,-,N/A,,Clear,290,2014-02-18 12:16:00
7:36 AM,9.0,7.2,92,29.78,2.5,WNW,3.5,-,N/A,,Clear,300,2014-02-18 12:36:00
7:57 AM,8.6,7.0,93,29.79,1.2,West,4.6,-,N/A,,Mist,280,2014-02-18 12:57:00
8:16 AM,8.8,6.8,92,29.80,10.0,WSW,5.8,-,N/A,,Clear,240,2014-02-18 13:16:00
8:37 AM,9.5,8.1,94,29.80,10.0,SW,4.6,-,N/A,,Clear,230,2014-02-18 13:37:00
8:57 AM,10.9,9.3,93,29.80,10.0,SW,6.9,-,N/A,,Clear,230,2014-02-18 13:57:00
9:16 AM,10.4,8.6,92,29.80,7.0,SW,4.6,-,N/A,,Scattered Clouds,230,2014-02-18 14:16:00
9:37 AM,11.5,10.0,94,29.79,5.0,SW,4.6,-,N/A,,Clear,230,2014-02-18 14:37:00
9:57 AM,12.7,11.1,93,29.80,10.0,SW,6.9,-,N/A,,Clear,220,2014-02-18 14:57:00
10:16 AM,13.5,12.0,94,29.80,10.0,SW,5.8,-,N/A,,Clear,230,2014-02-18 15:16:00
10:37 AM,13.8,12.4,94,29.80,10.0,SW,5.8,-,N/A,,Clear,230,2014-02-18 15:37:00
10:56 AM,15.6,14.0,93,29.80,10.0,SW,5.8,-,N/A,,Clear,220,2014-02-18 15:56:00
11:16 AM,16.2,14.7,94,29.81,10.0,SW,5.8,-,N/A,,Clear,230,2014-02-18 16:16:00
11:37 AM,18.3,16.3,92,29.80,10.0,SW,9.2,-,N/A,,Clear,230,2014-02-18 16:37:00
11:56 AM,20.3,16.0,83,29.81,10.0,SW,6.9,-,N/A,,Clear,230,2014-02-18 16:56:00
12:17 PM,22.1,16.7,80,29.79,10.0,SW,4.6,-,N/A,,Clear,230,2014-02-18 17:17:00
12:37 PM,22.5,17.1,80,29.78,10.0,WSW,3.5,-,N/A,,Clear,240,2014-02-18 17:37:00
12:56 PM,23.4,17.4,78,29.77,10.0,Calm,Calm,-,N/A,,Clear,0,2014-02-18 17:56:00
1:17 PM,23.7,17.6,77,29.76,10.0,SW,4.6,-,N/A,,Clear,230,2014-02-18 18:17:00
1:37 PM,23.9,18.3,79,29.77,10.0,WSW,5.8,-,N/A,,Clear,250,2014-02-18 18:37:00
1:56 PM,24.3,18.7,79,29.77,10.0,WSW,4.6,-,N/A,,Clear,240,2014-02-18 18:56:00
2:17 PM,27.3,19.6,73,29.74,10.0,Calm,Calm,-,N/A,,Clear,0,2014-02-18 19:17:00
2:37 PM,25.2,18.3,75,29.72,10.0,East,3.5,-,N/A,,Clear,80,2014-02-18 19:37:00
2:56 PM,24.1,18.0,77,29.70,10.0,East,5.8,-,N/A,,Clear,80,2014-02-18 19:56:00
3:17 PM,23.5,18.9,82,29.70,10.0,East,4.6,-,N/A,,Clear,80,2014-02-18 20:17:00
3:37 PM,25.5,20.1,80,29.71,10.0,SE,3.5,-,N/A,,Clear,130,2014-02-18 20:37:00
3:57 PM,28.6,20.3,71,29.69,10.0,East,5.8,-,N/A,,Clear,100,2014-02-18 20:57:00
4:17 PM,24.8,19.9,82,29.69,10.0,East,12.7,18.4,N/A,,Clear,100,2014-02-18 21:17:00
4:37 PM,23.9,19.9,85,29.69,10.0,East,11.5,17.3,N/A,,Scattered Clouds,100,2014-02-18 21:37:00
4:57 PM,23.9,20.5,87,29.66,10.0,East,13.8,20.7,N/A,,Scattered Clouds,90,2014-02-18 21:57:00
5:17 PM,23.4,21.2,91,29.64,10.0,East,12.7,24.2,N/A,,Clear,90,2014-02-18 22:17:00
5:36 PM,23.4,21.6,93,29.64,10.0,East,12.7,20.7,N/A,,Clear,100,2014-02-18 22:36:00
5:57 PM,23.5,22.1,94,29.64,10.0,East,12.7,20.7,N/A,,Clear,90,2014-02-18 22:57:00
6:17 PM,23.7,22.6,96,29.64,10.0,East,12.7,17.3,N/A,,Clear,80,2014-02-18 23:17:00
6:36 PM,23.9,23.0,96,29.62,10.0,East,13.8,19.6,N/A,,Clear,100,2014-02-18 23:36:00
6:57 PM,24.6,23.5,96,29.63,10.0,ESE,11.5,18.4,N/A,,Clear,110,2014-02-18 23:57:00
7:17 PM,24.6,23.0,94,29.63,10.0,ESE,11.5,18.4,N/A,,Clear,110,2014-02-19 00:17:00
7:37 PM,24.3,23.0,95,29.62,10.0,ESE,10.4,16.1,N/A,,Clear,110,2014-02-19 00:37:00
7:57 PM,23.9,22.6,95,29.61,10.0,East,8.1,16.1,N/A,,Clear,100,2014-02-19 00:57:00
8:17 PM,23.7,22.5,95,29.60,10.0,East,8.1,-,N/A,,Clear,100,2014-02-19 01:17:00
8:37 PM,23.2,22.3,96,29.59,10.0,ESE,5.8,-,N/A,,Clear,120,2014-02-19 01:37:00
8:57 PM,25.7,22.8,89,29.59,10.0,SE,9.2,-,N/A,,Clear,140,2014-02-19 01:57:00
9:17 PM,28.8,22.1,76,29.58,10.0,SSE,9.2,16.1,N/A,,Clear,150,2014-02-19 02:17:00
9:37 PM,28.4,21.7,76,29.58,10.0,SSE,8.1,-,N/A,,Clear,150,2014-02-19 02:37:00
9:56 PM,28.2,21.6,76,29.57,10.0,SSE,10.4,-,N/A,,Clear,150,2014-02-19 02:56:00
10:17 PM,27.9,21.6,77,29.57,10.0,SSE,9.2,-,N/A,,Clear,150,2014-02-19 03:17:00
10:37 PM,27.9,21.2,76,29.56,10.0,SSE,9.2,-,N/A,,Clear,150,2014-02-19 03:37:00
10:56 PM,27.5,21.2,77,29.56,10.0,SSE,8.1,-,N/A,,Scattered Clouds,160,2014-02-19 03:56:00
11:16 PM,27.3,21.2,78,29.55,10.0,SSE,6.9,-,N/A,,Mostly Cloudy,160,2014-02-19 04:16:00
11:37 PM,26.6,21.0,79,29.55,10.0,SSE,6.9,-,N/A,,Scattered Clouds,150,2014-02-19 04:37:00
11:56 PM,26.1,21.0,81,29.54,10.0,SE,8.1,-,N/A,,Mostly Cloudy,140,2014-02-19 04:56:00